Simultaneous Nadir Overpasses (SNOs) Predictions

Prediction of SNOs between AURA and NPP Satellite Orbit:

Table of predicted SNOs for the next 14.0 days since TLE Epoch: 9/25/2021
Index Date (AURA) Time (AURA) Lat,Lon (AURA) SZA (AURA ) Date (NPP) Time (NPP) Lat,Lon (NPP) SZA (NPP ) Distance(km) Time Diff (sec)
1 09/27/2021 10:35:45 79.19, -84.14 94.20 09/27/2021 10:34:52 79.18, -84.21 94.26 1.57 53
2 09/27/2021 11:25:04 -79.50, 85.59 86.23 09/27/2021 11:25:28 -79.51, 85.66 86.26 1.57 24
3 09/30/2021 02:52:12 79.29, 32.41 95.04 09/30/2021 02:51:45 79.28, 32.32 95.08 1.86 27
4 09/30/2021 03:41:30 -79.60,-157.81 85.39 09/30/2021 03:42:20 -79.61,-157.74 85.44 1.31 50
5 10/02/2021 19:08:38 79.39, 148.92 95.89 10/02/2021 19:08:37 79.38, 148.86 95.90 1.34 1
6 10/02/2021 19:56:24 -81.80, -7.95 89.46 10/02/2021 19:57:37 -81.30, -7.48 89.77 55.56 73
7 10/05/2021 10:35:47 -79.18, 95.80 82.87 10/05/2021 10:34:55 -79.17, 95.70 82.81 2.30 52
8 10/05/2021 11:25:05 79.48, -94.59 96.74 10/05/2021 11:25:30 79.48, -94.60 96.73 0.28 25
9 10/08/2021 02:52:13 -79.30,-147.53 82.06 10/08/2021 02:51:47 -79.30,-147.54 82.04 0.31 26



Historial Predications of SNOs between AURA and NPP
